Weather reports worldwide

Advertisment
Leck, Germany (10022): temperature & dewpoint: 07.07.2020 08:00:00 - 13.07.2020 08:00:00 (CEST)Leck, Germany (10022): temperature 5cm & temperature -5cm: 07.07.2020 08:00:00 - 13.07.2020 08:00:00 (CEST)Leck, Germany (10022): temperature -20cm & temperature -100cm: 07.07.2020 08:00:00 - 13.07.2020 08:00:00 (CEST)Leck, Germany (10022): wind speed & gusts: 07.07.2020 08:00:00 - 13.07.2020 08:00:00 (CEST)Leck, Germany (10022): wind direction: 07.07.2020 08:00:00 - 13.07.2020 08:00:00 (CEST)Leck, Germany (10022): reduced air pressure: 07.07.2020 08:00:00 - 13.07.2020 08:00:00 (CEST)Leck, Germany (10022): visibility: 07.07.2020 08:00:00 - 13.07.2020 08:00:00 (CEST)Leck, Germany (10022): sunshine duration: 07.07.2020 08:00:00 - 13.07.2020 08:00:00 (CEST)Leck, Germany (10022): precipitation: 07.07.2020 08:00:00 - 13.07.2020 08:00:00 (CEST)
Date & Time tt [°C] td [°C] tt 5cm [°C] tt -5cm [°C] tt -20cm [°C] tt -100cm [°C] ff [km/h] ff [kn] fx [km/h] fx [kn] dd ppp [hPa] vv [km] sd [min] rr [mm]
13.07.2020 08:00:00 - - - - - - - - - - - - - - -
13.07.2020 07:00:00 10,8 8,7 12,3 10,0 13,1 14,2 0 0 3 2 N 1024,8 38 49 0,0
13.07.2020 06:00:00 7,9 7,2 5,7 8,1 13,5 14,2 2 1 4 2 SE 1024,8 32 0 0,0
13.07.2020 05:00:00 7,4 7,2 3,9 8,3 13,8 14,2 3 1 4 2 SE 1024,8 0,5 0 0,0
13.07.2020 04:00:00 9,1 8,7 4,4 8,8 14,2 14,2 3 2 10 5 WSW 1025,3 0,4 0 0,0
13.07.2020 03:00:00 9,2 8,9 5,1 9,3 14,6 14,2 5 3 10 6 W 1025,6 31 0 0,0
13.07.2020 02:00:00 8,9 7,9 5,1 9,9 15,0 14,2 3 2 5 3 WSW 1025,8 27 0 0,0
13.07.2020 01:00:00 10,3 9,6 5,8 10,8 15,5 14,2 2 1 10 5 WSW 1026,2 42 0 0,0
13.07.2020 00:00:00 10,1 9,4 6,3 11,9 15,9 14,2 6 3 13 7 WSW 1026,4 26 0 0,0
12.07.2020 23:00:00 12,1 10,2 9,2 13,1 16,3 14,2 9 5 11 6 WSW 1026,8 54 0 0,0
12.07.2020 22:00:00 13,2 10,5 10,4 14,8 16,6 14,2 7 4 18 10 W 1026,8 47 20 0,0
12.07.2020 21:00:00 15,2 10,6 14,9 16,5 16,8 14,2 13 7 25 13 WNW 1026,6 61 40 0,0
12.07.2020 20:00:00 15,6 10,7 15,8 18,0 16,9 14,2 16 9 29 16 WNW 1026,7 60 1 0,0
12.07.2020 19:00:00 16,4 11,0 17,4 20,0 16,8 14,2 19 10 36 20 W 1026,8 66 19 0,0
12.07.2020 18:00:00 17,0 10,8 19,0 22,2 16,5 14,2 23 12 41 22 W 1026,9 63 47 0,0
12.07.2020 17:00:00 17,6 10,0 21,1 22,8 16,0 14,2 23 12 40 22 W 1027,1 50 52 0,0
12.07.2020 16:00:00 17,2 9,5 20,9 22,3 15,5 14,2 23 12 40 21 W 1027,4 69 57 0,0
12.07.2020 15:00:00 17,5 8,7 21,8 20,3 15,0 14,2 22 12 37 20 W 1027,3 64 29 0,0
12.07.2020 14:00:00 16,9 9,2 20,9 19,6 14,6 14,2 22 12 34 18 W 1027,2 66 7 0,0
12.07.2020 13:00:00 16,2 9,8 19,6 18,4 14,3 14,3 19 10 34 18 W 1027,1 46 0 0,0
12.07.2020 12:00:00 16,0 9,6 18,7 18,1 13,8 14,3 22 12 33 18 W 1027,1 75 0 0,0
12.07.2020 11:00:00 15,4 8,9 17,8 17,0 13,5 14,3 21 11 32 17 W 1026,9 46 0 0,0
12.07.2020 10:00:00 15,4 9,3 17,6 16,6 13,1 14,3 19 11 31 17 W 1026,6 56 19 0,0
12.07.2020 09:00:00 15,1 9,2 17,6 15,9 12,9 14,3 19 10 29 16 WNW 1026,3 56 59 0,0
12.07.2020 08:00:00 14,1 10,0 15,9 13,4 12,8 14,3 16 8 23 12 W 1025,6 56 60 0,0
12.07.2020 07:00:00 12,2 9,1 12,1 10,4 12,9 14,3 11 6 16 8 W 1025,3 60 52 0,0
12.07.2020 06:00:00 9,5 7,7 7,0 8,9 13,2 14,3 8 4 11 6 W 1025,1 47 0 0,0
12.07.2020 05:00:00 9,7 8,3 7,3 9,5 13,4 14,3 8 4 12 7 W 1024,9 42 0 0,0
12.07.2020 04:00:00 11,2 9,7 10,0 10,7 13,5 14,3 6 4 16 8 NW 1024,8 36 0 0,3
12.07.2020 03:00:00 11,1 8,9 9,2 10,3 13,7 14,3 10 5 15 8 WSW 1024,8 45 0 0,0
12.07.2020 02:00:00 10,8 9,0 9,2 10,3 14,0 14,3 9 5 14 7 WSW 1024,9 39 0 0,2
12.07.2020 01:00:00 10,8 8,8 8,9 10,3 14,3 14,3 9 5 14 7 WSW 1024,9 50 0 0,0
12.07.2020 00:00:00 10,4 8,1 8,1 10,6 14,6 14,3 7 4 10 6 W 1024,9 43 0 0,0
11.07.2020 23:00:00 10,7 8,1 8,4 11,1 14,9 14,3 7 4 14 8 W 1024,7 47 0 0,0
11.07.2020 22:00:00 11,5 8,4 9,1 12,5 15,1 14,3 9 5 19 11 W 1024,3 44 19 0,0
11.07.2020 21:00:00 13,6 9,3 12,6 13,9 15,3 14,3 11 6 25 14 W 1023,9 41 43 0,0
11.07.2020 20:00:00 13,9 8,6 13,9 14,9 15,3 14,3 18 10 30 16 WNW 1023,7 67 28 0,0
11.07.2020 19:00:00 14,3 8,5 14,3 15,6 15,3 14,3 20 11 32 18 WNW 1023,4 55 18 0,0
11.07.2020 18:00:00 14,2 9,0 14,5 16,2 15,3 14,4 20 11 37 20 NW 1023,2 58 19 0,0
11.07.2020 17:00:00 15,7 8,7 16,3 17,7 15,2 14,4 21 12 34 18 WNW 1023,0 60 13 0,0
11.07.2020 16:00:00 14,0 9,2 13,6 16,5 15,2 14,4 20 11 35 19 NW 1022,8 53 2 1,2
11.07.2020 15:00:00 15,6 9,9 17,8 16,5 15,1 14,4 22 12 36 19 NW 1022,4 43 3 0,0
11.07.2020 14:00:00 14,5 9,0 15,9 17,6 14,8 14,4 22 12 37 20 WNW 1022,0 56 12 0,0
11.07.2020 13:00:00 15,6 8,2 19,7 20,4 14,3 14,4 25 14 42 23 WNW 1021,5 51 43 0,0
11.07.2020 12:00:00 14,3 10,5 16,1 18,3 13,9 14,4 19 10 47 25 WNW 1021,1 68 37 0,5
11.07.2020 11:00:00 12,2 9,3 11,9 15,3 13,5 14,4 22 12 48 26 W 1020,5 44 20 1,8
11.07.2020 10:00:00 14,6 8,6 16,2 16,9 13,2 14,4 22 12 37 20 W 1019,9 70 43 0,0
11.07.2020 09:00:00 14,1 8,4 15,2 14,9 13,0 14,4 27 15 39 21 W 1019,3 53 48 0,0
11.07.2020 08:00:00 13,2 8,5 13,5 12,8 12,9 14,4 21 11 31 17 W 1018,9 52 49 0,0
11.07.2020 07:00:00 12,6 8,3 13,6 10,9 13,1 14,4 12 6 19 10 W 1018,6 75 52 0,0
11.07.2020 06:00:00 10,3 7,5 8,2 9,4 13,3 14,4 11 6 17 9 W 1018,1 51 0 0,0
11.07.2020 05:00:00 10,7 7,9 8,7 10,1 13,4 14,4 10 6 15 8 WNW 1017,7 55 0 0,0
11.07.2020 04:00:00 11,1 8,4 9,4 10,5 13,6 14,4 9 5 27 14 W 1017,2 51 0 0,0
11.07.2020 03:00:00 10,8 8,1 9,6 9,8 13,9 14,4 10 5 19 11 W 1016,9 44 0 0,0
11.07.2020 02:00:00 10,9 7,4 9,0 10,1 14,1 14,4 15 8 25 14 W 1016,5 53 0 0,0
11.07.2020 01:00:00 11,2 8,1 9,5 10,8 14,4 14,4 16 8 37 20 W 1016,2 56 0 0,0
11.07.2020 00:00:00 11,9 7,9 10,6 11,3 14,7 14,5 14 8 23 12 W 1015,6 57 0 0,0
10.07.2020 23:00:00 12,0 7,9 11,2 11,5 15,0 14,5 17 9 23 13 W 1015,2 56 0 0,0
10.07.2020 22:00:00 11,8 7,6 10,3 12,3 15,3 14,5 16 9 36 19 WNW 1014,7 56 12 0,0
10.07.2020 21:00:00 13,3 8,3 12,7 13,9 15,4 14,5 21 11 35 19 WNW 1014,3 70 14 0,0
10.07.2020 20:00:00 13,0 7,8 11,4 15,0 15,5 14,5 21 12 45 24 WNW 1013,8 65 19 0,4
10.07.2020 19:00:00 12,5 8,0 11,8 15,9 15,6 14,5 29 15 46 25 WNW 1013,7 9 7 0,0
10.07.2020 18:00:00 14,5 8,0 15,3 17,3 15,4 14,5 23 12 39 21 WNW 1012,7 62 20 0,0
10.07.2020 17:00:00 15,7 7,5 17,8 18,9 15,1 14,5 26 14 40 22 WNW 1012,1 75 12 0,0
10.07.2020 16:00:00 14,9 8,3 16,7 18,5 14,7 14,5 25 13 42 23 WNW 1011,4 56 19 0,0
10.07.2020 15:00:00 15,7 8,3 17,3 19,4 14,2 14,5 24 13 33 18 NW 1010,5 75 24 0,0
10.07.2020 14:00:00 14,5 9,3 16,3 16,9 13,9 14,5 8 4 15 8 NNW 1010,1 45 2 0,0
10.07.2020 13:00:00 12,8 8,3 12,3 15,1 13,7 14,5 11 6 16 9 N 1010,0 70 0 0,1
10.07.2020 12:00:00 11,9 9,4 11,8 13,6 13,7 14,5 10 5 18 10 NNW 1009,8 54 0 0,2
10.07.2020 11:00:00 11,4 9,7 11,5 12,9 13,6 14,5 13 7 18 10 NNW 1009,3 39 0 0,1
10.07.2020 10:00:00 11,0 8,7 10,8 12,6 13,6 14,5 12 7 18 10 N 1009,1 51 0 0,1
10.07.2020 09:00:00 10,7 9,2 10,9 12,5 13,6 14,5 11 6 18 10 N 1009,0 25 0 0,0
10.07.2020 08:00:00 10,4 8,9 10,4 11,9 13,7 14,5 8 4 16 9 NNE 1008,8 41 0 0,4
10.07.2020 07:00:00 10,3 8,4 9,8 11,2 13,9 14,5 7 4 14 8 NE 1009,3 22 0 0,5
10.07.2020 06:00:00 10,0 7,9 9,2 10,8 14,1 14,5 5 3 11 6 NE 1009,5 34 0 0,2
10.07.2020 05:00:00 9,6 7,6 8,8 10,5 14,3 14,5 7 4 11 6 N 1009,8 49 0 0,0
10.07.2020 04:00:00 9,5 7,4 7,9 10,5 14,6 14,6 6 3 9 5 NNE 1010,3 56 0 0,0
10.07.2020 03:00:00 9,7 7,7 7,9 10,8 14,9 14,6 6 3 10 5 N 1010,8 62 0 0,0
10.07.2020 02:00:00 10,5 7,5 7,8 11,8 15,2 14,6 7 4 10 5 N 1011,1 64 0 0,0
10.07.2020 01:00:00 11,8 8,0 10,8 12,9 15,5 14,6 5 3 10 5 N 1011,6 59 0 0,0
10.07.2020 00:00:00 11,9 8,5 10,6 13,4 15,7 14,6 4 2 9 5 NNW 1011,9 59 0 0,0
09.07.2020 23:00:00 12,1 9,0 11,5 13,7 16,0 14,6 6 4 11 6 NW 1011,8 59 0 0,0
09.07.2020 22:00:00 13,2 9,0 12,1 14,7 16,2 14,6 8 5 13 7 NW 1011,6 59 10 0,0
09.07.2020 21:00:00 14,3 9,2 13,7 15,9 16,3 14,6 10 5 19 10 NNW 1011,8 70 34 0,0
09.07.2020 20:00:00 15,5 9,6 16,3 17,6 16,3 14,6 14 8 23 12 NW 1011,7 48 29 0,0
09.07.2020 19:00:00 14,9 9,1 16,0 18,6 16,2 14,6 17 9 23 13 WNW 1012,0 57 11 0,0
09.07.2020 18:00:00 16,6 8,2 20,4 21,6 15,7 14,6 4 2 15 8 SSW 1011,7 64 35 0,0
09.07.2020 17:00:00 15,5 8,9 18,9 21,0 15,3 14,6 7 4 13 7 ENE 1012,0 24 7 0,0
09.07.2020 16:00:00 14,6 9,2 17,6 19,5 14,9 14,6 7 4 14 8 E 1012,4 27 1 0,0
09.07.2020 15:00:00 14,3 9,8 16,3 18,6 14,6 14,6 7 4 13 7 ESE 1012,7 73 0 0,0
09.07.2020 14:00:00 13,7 9,4 16,0 17,9 14,3 14,7 9 5 16 8 ESE 1012,7 54 0 0,0
09.07.2020 13:00:00 13,6 9,9 14,1 17,0 14,0 14,7 8 4 12 7 E 1013,1 27 0 0,3
09.07.2020 12:00:00 13,3 9,4 13,9 15,5 13,8 14,7 9 5 12 6 ESE 1013,3 55 0 0,0
09.07.2020 11:00:00 13,0 8,9 13,6 14,6 13,6 14,7 8 4 14 8 ESE 1013,7 67 0 0,0
09.07.2020 10:00:00 13,0 9,1 13,9 14,7 13,4 14,7 9 5 14 8 ESE 1013,9 45 0 0,0
09.07.2020 09:00:00 13,3 9,5 14,8 14,3 13,2 14,7 6 4 10 5 SE 1014,1 49 2 0,0
09.07.2020 08:00:00 12,0 9,5 13,1 13,4 13,1 14,7 6 3 8 5 E 1014,2 52 24 0,0
09.07.2020 07:00:00 10,0 8,7 10,0 10,8 13,2 14,7 5 3 6 3 ENE 1014,7 41 18 0,0
09.07.2020 06:00:00 8,7 7,8 7,9 9,4 13,4 14,7 5 3 6 3 E 1014,9 41 0 0,0
09.07.2020 05:00:00 8,4 7,4 6,2 9,5 13,6 14,7 3 2 4 2 E 1014,9 38 0 0,0
09.07.2020 04:00:00 8,7 7,9 7,4 9,9 13,9 14,7 4 2 5 3 S 1015,1 42 0 0,0
09.07.2020 03:00:00 8,6 7,9 7,2 9,8 14,1 14,7 4 2 5 3 S 1015,6 44 0 0,0
09.07.2020 02:00:00 9,4 8,2 6,3 10,5 14,4 14,7 4 2 5 3 S 1015,5 40 0 0,0
09.07.2020 01:00:00 9,6 7,9 9,0 10,8 14,7 14,8 4 2 5 3 S 1015,9 55 0 0,0
09.07.2020 00:00:00 9,0 8,0 7,3 10,8 15,0 14,8 5 3 11 6 SW 1015,9 59 0 0,0
08.07.2020 23:00:00 10,4 7,9 7,3 11,4 15,3 14,8 5 3 11 6 W 1015,8 56 0 0,0
08.07.2020 22:00:00 11,3 8,2 9,3 12,7 15,6 14,8 6 4 19 10 W 1015,7 62 0 0,0
08.07.2020 21:00:00 13,0 7,4 11,9 13,8 15,8 14,8 14 7 28 15 WNW 1015,4 61 56 0,0
08.07.2020 20:00:00 13,3 7,7 13,1 15,1 15,8 14,8 16 9 32 18 WNW 1015,2 70 11 0,0
08.07.2020 19:00:00 14,5 7,5 15,7 16,5 15,8 14,8 19 11 32 17 WNW 1015,0 75 30 0,0
08.07.2020 18:00:00 14,1 7,0 15,0 16,8 15,8 14,8 22 12 32 17 WNW 1015,1 75 16 0,0
08.07.2020 17:00:00 14,3 6,9 15,5 17,4 15,7 14,8 23 12 33 18 WNW 1015,0 65 14 0,0
08.07.2020 16:00:00 14,8 7,6 16,6 17,6 15,5 14,8 20 11 37 20 WNW 1014,8 47 7 0,0
08.07.2020 15:00:00 14,2 7,3 15,5 16,6 15,4 14,8 20 11 31 17 WNW 1014,8 61 2 0,0
08.07.2020 14:00:00 14,9 7,3 18,0 18,4 15,1 14,8 21 12 37 20 WNW 1014,5 64 7 0,0
08.07.2020 13:00:00 14,9 5,9 17,5 19,7 14,6 14,9 25 14 41 22 WNW 1014,1 75 43 0,0
08.07.2020 12:00:00 14,4 6,2 17,3 17,9 14,2 14,9 29 16 42 23 WNW 1013,9 75 24 0,0
08.07.2020 11:00:00 15,5 7,8 19,5 18,0 13,9 14,9 26 14 41 22 W 1013,5 44 39 0,0
08.07.2020 10:00:00 13,7 7,9 16,2 14,7 13,7 14,9 19 10 31 17 WNW 1013,3 75 5 0,0
08.07.2020 09:00:00 13,2 7,9 14,1 14,1 13,5 14,9 17 9 28 15 W 1013,0 49 14 0,0
08.07.2020 08:00:00 13,0 8,9 15,0 13,1 13,5 14,9 14 7 20 11 W 1012,8 41 27 0,0
08.07.2020 07:00:00 10,9 8,2 10,4 10,5 13,7 14,9 10 6 17 9 W 1012,7 51 7 0,0
08.07.2020 06:00:00 10,8 8,2 9,5 10,4 13,9 14,9 10 5 19 10 W 1012,7 62 0 0,0
08.07.2020 05:00:00 10,2 7,5 8,6 10,2 14,1 14,9 11 6 18 10 WSW 1012,8 52 0 0,0
08.07.2020 04:00:00 10,6 8,1 9,3 11,0 14,3 14,9 11 6 16 9 W 1013,1 55 0 0,0
08.07.2020 03:00:00 10,8 8,9 9,7 11,4 14,5 14,9 10 5 12 7 WSW 1013,3 53 0 0,0
08.07.2020 02:00:00 10,5 9,2 10,0 11,7 14,6 15,0 7 4 27 15 W 1013,5 49 0 2,7
08.07.2020 01:00:00 11,1 8,8 10,2 11,7 14,9 15,0 10 5 14 7 WSW 1013,6 56 0 0,0
08.07.2020 00:00:00 10,9 8,4 9,8 12,0 15,1 15,0 10 6 22 12 WNW 1013,8 64 0 0,0
07.07.2020 23:00:00 10,8 9,3 10,2 12,3 15,3 15,0 6 4 33 18 WNW 1013,8 48 0 0,2
07.07.2020 22:00:00 12,2 8,4 11,6 12,7 15,6 15,0 13 7 24 13 W 1013,9 38 0 0,0
07.07.2020 21:00:00 12,2 8,2 12,0 13,6 15,8 15,0 18 10 37 20 WNW 1013,9 71 0 0,0
07.07.2020 20:00:00 13,5 8,7 13,4 14,5 15,9 15,0 20 11 31 17 W 1014,0 58 0 0,0
07.07.2020 19:00:00 13,7 9,4 14,1 15,4 16,0 15,0 17 9 33 18 W 1014,2 56 0 0,0
07.07.2020 18:00:00 14,3 8,8 15,6 16,5 16,0 15,0 23 12 32 18 WNW 1014,4 71 0 0,0
07.07.2020 17:00:00 13,1 10,5 14,3 16,4 15,9 15,0 14 8 48 26 W 1014,5 74 0 0,3
07.07.2020 16:00:00 15,1 9,4 17,2 17,9 15,7 15,0 27 14 44 24 W 1014,3 53 14 0,0
07.07.2020 15:00:00 15,9 9,4 18,8 19,5 15,3 15,0 30 16 44 24 W 1014,4 40 30 0,0
07.07.2020 14:00:00 15,1 11,2 16,9 19,2 15,0 15,1 24 13 39 21 WSW 1014,6 36 20 0,5
07.07.2020 13:00:00 13,2 11,1 13,2 15,9 14,8 15,1 29 15 51 28 WSW 1015,0 11 10 0,7
07.07.2020 12:00:00 13,8 9,8 12,8 16,1 14,5 15,1 30 16 45 25 SW 1015,2 9 12 0,1
07.07.2020 11:00:00 14,9 9,3 16,1 16,2 14,3 15,1 21 12 41 22 SW 1015,7 36 0 0,0
07.07.2020 10:00:00 14,3 8,6 15,3 15,4 14,0 15,1 22 12 33 18 SW 1016,1 41 2 0,0
07.07.2020 09:00:00 14,0 8,4 15,2 14,7 13,9 15,1 19 11 35 19 WSW 1016,3 48 21 0,0
07.07.2020 08:00:00 13,3 8,4 13,8 13,2 13,8 15,1 16 8 33 18 W 1016,3 39 43 0,0

tt = temperature
td = dewpoint
tt 5cm = temperature 5cm
tt -5cm = temperature -5cm
tt -20cm = temperature -20cm
tt -100cm = temperature -100cm
ff = wind speed
fx = gusts
dd = wind direction
ppp = reduced air pressure
vv = visibility
sd = sunshine duration
rr = precipitation

Next stations